Regional Weather Roundup
Issued by NWS

Home | Current Version | Previous Version | Graphics & Text | Print | Product List | Glossary On
Versions: 1 2 3 4 5 6 7 8 9 10 11 12 13 14 15 16 17 18 19 20 21 22 23 24 25 26 27 28 29 30 31 32 33 34 35 36 37 38 39 40 41 42 43 44 45 46 47 48 49 50
000
ASUS43 KLOT 030321
RWRIL

ILLINOIS REGIONAL WEATHER ROUNDUP
NATIONAL WEATHER SERVICE CHICAGO/ROMEOVILLE IL
1000 PM CDT SUN AUG 02 2015

NOTE: "FAIR" INDICATES FEW OR NO CLOUDS BELOW 12,000 FEET WITH NO
SIGNIFICANT WEATHER AND/OR OBSTRUCTIONS TO VISIBILITY.

* THESE STATIONS ARE NOT UNDER NWS QUALITY CONTROL. THEY ALSO MAY NOT
  REPORT WEATHER SUCH AS PRECIPITATION OR FOG.

ILZ001-002-007-009-015-016-024-030400-
NORTHWEST ILLINOIS

CITY           SKY/WX    TMP DP  RH WIND       PRES   REMARKS
MOLINE         CLOUDY    77  71  82 W6        29.74S
STERLING*      CLEAR     81  73  78 W13       29.69R HX  85
SAVANNA*       CLEAR     82  73  72 W10G16    29.71R HX  88
$$

ILZ003-004-008-010-011-017-018-030400-
NORTH CENTRAL ILLINOIS

CITY           SKY/WX    TMP DP  RH WIND       PRES   REMARKS
ROCKFORD       MOCLDY    82  73  74 W15       29.68R THUNDER HX  87
FREEPORT*      PTCLDY    77  72  83 W10       29.72R THUNDER
ROCHELLE*      MOCLDY    79  74  83 SW9       29.69R HX  83
DE KALB*       PTCLDY    81  74  79 SW15      29.68S HX  85
PERU*          PTCLDY    82  72  71 SW17      29.72S HX  86
$$

ILZ005-006-012>014-019>023-030400-
NORTHEAST ILLINOIS

CITY           SKY/WX    TMP DP  RH WIND       PRES   REMARKS
CHICAGO-OHARE  MOCLDY    84  71  65 SW12G23   29.67R HX  89
CHICAGO-MIDWAY MOCLDY    86  69  56 SW18G25   29.68R HX  90
AURORA         PTCLDY    82  71  69 SW15G24   29.67F HX  86
LANSING*       CLEAR     82  68  63 SW17G25   29.71R HX  85
JOLIET*        PTCLDY    83  72  68 SW9       29.69S HX  88
WAUKEGAN       TSTM      66  64  93 S10       29.72R
DUPAGE AIRPORT PTCLDY    81  72  74 SW14G23   29.67R HX  85
KANKAKEE*      CLEAR     78  72  80 SW13      29.74S HX  81
WHEELING       MOCLDY    84  71  65 SW10G25   29.67R HX  89
MORRIS*        CLEAR     82  71  70 SW17G23   29.69S HX  86
ROMEOVILLE*    CLEAR     82  68  62 SW14G22   29.69R HX  85
NORTHERLY ISL    N/A     85  67  54 SW10        N/A  HX  87
$$

LMZ740>746-030400-
SOUTHERN LAKE MICHIGAN

STATION/POSITION SKY/WX   TEMP    WIND        PRES    VSBY  WAVE
                          AIR SEA DIR/SP/G                  HT/PER
                          (F)     (DEG/KT/KT) (MB)    (MI)  (FT/S)
HARRISON CRIB              85     220/ 22/ 29   N/A
BURNHAM HARBOR             85     230/  6/ 16   N/A
CALUMET HARBOR             84     210/ 10/ 21   N/A
BURNS HARBOR               84     210/ 23     1006.1R
MICHIGAN CITY              83     190/ 24/ 28   N/A
MICHIGAN CITY 6N           81 74  230/ 17/ 23   N/A           5/ 4
ST. JOSEPH                 78 73  250/ 14/ 19   N/A           5/ 5
$$

ILZ025>027-034>036-040-047-049-050-058-095>099-030400-
WEST-CENTRAL ILLINOIS

CITY           SKY/WX    TMP DP  RH WIND       PRES   REMARKS
QUINCY         CLOUDY    80  72  76 SW9       29.81S HX  84
GALESBURG*     CLOUDY    79  73  80 SW9       29.78R HX  82
MACOMB*        CLOUDY    79  72  78 SW8       29.82R HX  83
JACKSONVILLE*  CLOUDY    80  73  81 SW6       29.82S HX  84
PITTSFIELD*    CLOUDY    81  71  71 SW6       29.85R HX  85
$$

ILZ028>032-037-038-041>044-048-051>054-059>061-030400-
CENTRAL ILLINOIS

CITY           SKY/WX    TMP DP  RH WIND       PRES   REMARKS
PONTIAC        CLEAR     80  72  75 SW14      29.76R HX  84
BLOOMINGTON    PTCLDY    80  71  74 SW14      29.81R HX  83
DECATUR        MOCLDY    80  70  71 SW8       29.82R HX  83
PEORIA         MOCLDY    83  72  69 SW12      29.78R HX  88
LACON*         PTCLDY    81  73  74 SW8       29.74R HX  86
LINCOLN*       CLOUDY    82  68  63 SW6       29.79R HX  84
SPRINGFIELD    MOCLDY    81  69  67 SW9       29.81R HX  84
TAYLORVILLE    MOCLDY    79  68  69 SW8       29.82S HX  81
$$

ILZ033-039-045-046-055>057-062-063-030400-
EAST-CENTRAL ILLINOIS

CITY           SKY/WX    TMP DP  RH WIND       PRES   REMARKS
CHAMPAIGN      CLEAR     75  71  87 S6        29.81S
DANVILLE*      MOCLDY    77  70  79 SW7       29.78S
RANTOUL*       CLEAR     79  73  81 SW9       29.79F HX  82
MATTOON        CLEAR     79  70  74 S7        29.82S HX  82
PARIS*         CLEAR     78  73  84 S6        29.83S HX  80
$$

ILZ079-100>102-030400-
SOUTHWEST ILLINOIS

CITY           SKY/WX    TMP DP  RH WIND       PRES   REMARKS
ALTON          CLEAR     79  68  69 SW7       29.85R HX  81
BELLEVILLE     PTCLDY    80  73  79 SW3       29.83S HX  83
CAHOKIA*       PTCLDY    83  69  62 S3        29.84R HX  86
SPARTA*        CLEAR     81  71  71 SW7       29.87S HX  85
$$

ILZ064>066-069>071-074>076-080>082-084>086-088>090-092>094-030400-
SOUTH-CENTRAL ILLINOIS

CITY           SKY/WX    TMP DP  RH WIND       PRES   REMARKS
CARBONDALE     CLEAR     79  72  79 S7        29.87R HX  82
CAIRO*         CLEAR     79  73  81 S5        29.88R HX  83
EFFINGHAM*     PTCLDY    80  69  68 S6        29.85S HX  82
MARION         CLEAR     79  73  83 S5        29.88S HX  82
MT. VERNON     CLEAR     79  68  69 SW5       29.87S HX  81
CENTRALIA*     CLEAR     79  71  76 S8        29.85S HX  82
SALEM*         CLEAR     82  72  72 S7        29.85F HX  86
METROPOLIS*    CLEAR     79  74  84 S3        29.90R HX  83
$$

ILZ067-068-072-073-078-083-087-091-030400-
SOUTHEAST ILLINOIS

CITY           SKY/WX    TMP DP  RH WIND       PRES   REMARKS
LAWRENCEVILLE  CLEAR     76  72  87 S8        29.86
FLORA*         CLEAR     77  72  82 S6        29.85F
FAIRFIELD*     CLEAR     78  73  84 S3        29.85S HX  80
HARRISBURG*    CLEAR     75  74  95 CALM      29.89S
ROBINSON*      CLEAR     77  71  81 S8        29.85S
CARMI*         CLEAR     74  69  82 CALM      29.87S
$$

ABBREVIATIONS USED IN REMARKS
   TC - TEMPERATURE IN CELSIUS
  WCI - WIND CHILL INDEX
   HX - HEAT INDEX
  VSB - VISIBILITY
$$



USA.gov is the U.S. government's official web portal to all federal, state and local government web resources and services.